Date String (YYYY-MM-DD hh:mm:ss) UTC,Instrument flags,absolute air pressure of the measurement (hPa),sample flow rate (lpm),inlet stack bypass flow (lpm),air temperature of the measurement (°C),ambient temperature measured by the external sensor (°C),aerosol sample conditioner tube jacket temperature (°C),OPC LED temperature (°C),internal box temperature (°C),relative humidity of the measurement (%),span deviation,mass concentration of particles derived from Lorenz-Mie calculation of OPC scattering (μg/m³),mass concentration of particles derived from Lorenz-Mie calculation of OPC scattering (μg/m³),mass concentration of particles derived from Lorenz-Mie calculation of OPC scattering (μg/m³)
DateTimeUTC,F1_M11,P_M11,Q1_M11,Q2_M11,T1_M11,T2_M11,T3_M11,T4_M11,T5_M11,U1_M11,ZSPAN_M11,X0_M11,X2_M11,X1_M11
2023-07-21 22:00:00,SystemResetWarning,0836.4,5.01,000.00,028.8,025.0,000.0,037.0,030.0,25.5,0001.2,0010.03,0006.38,0006.06
2023-07-21 22:01:00,SystemResetWarning,0836.4,4.99,000.00,028.7,025.4,000.0,037.0,030.1,26.5,0001.8,0009.48,0006.36,0006.05
2023-07-21 22:02:00,SystemResetWarning,0836.4,5.00,000.00,028.7,025.9,000.0,037.1,030.2,27.7,0001.3,0009.49,0006.37,0006.04
2023-07-21 22:03:00,SystemResetWarning,0836.4,5.01,000.00,028.7,026.3,000.0,037.1,030.3,27.3,0001.1,0009.46,0006.34,0006.02
2023-07-21 22:04:00,SystemResetWarning,0836.4,5.00,000.00,028.8,026.7,000.0,037.1,030.4,28.1,0001.9,0009.44,0006.34,0006.02
2023-07-21 22:05:00,SystemResetWarning,0836.4,4.99,000.00,028.8,027.1,000.0,037.2,030.5,28.1,0002.4,0009.71,0006.35,0006.02
2023-07-21 22:06:00,SystemResetWarning,0836.4,5.00,000.00,028.9,027.4,000.0,037.2,030.6,28.3,0002.3,0010.00,0006.33,0005.99
2023-07-21 22:07:00,SystemResetWarning,0836.5,5.00,000.00,028.9,027.7,000.0,037.2,030.7,27.1,0002.3,0009.60,0006.29,0005.96
2023-07-21 22:08:00,SystemResetWarning,0836.5,5.00,000.00,029.0,027.4,000.0,037.2,030.7,27.0,0001.8,0009.23,0006.25,0005.94
2023-07-21 22:09:00,SystemResetWarning,0836.5,5.00,000.00,028.9,025.7,000.0,037.1,030.4,26.9,0000.0,0009.24,0006.22,0005.92
2023-07-21 22:10:00,SystemResetWarning,0836.4,5.00,000.00,028.8,024.8,000.0,037.0,030.2,27.5,0000.2,0009.32,0006.22,0005.91
2023-07-21 22:11:00,SystemResetWarning,0836.4,5.01,000.00,028.8,024.9,000.0,037.0,030.0,26.9,0000.2,0009.33,0006.19,0005.87
2023-07-21 22:12:00,SystemResetWarning,0836.4,5.00,000.00,028.7,025.2,000.0,037.0,030.0,27.7,0000.1,0009.38,0006.21,0005.87
2023-07-21 22:13:00,SystemResetWarning,0836.5,5.00,000.00,028.7,025.7,000.0,037.0,030.1,26.9,0000.4,0009.38,0006.19,0005.87
2023-07-21 22:14:00,SystemResetWarning,0836.5,5.00,000.00,028.7,026.2,000.0,037.1,030.2,27.8,-000.3,0009.78,0006.21,0005.88
2023-07-21 22:15:00,SystemResetWarning,0836.5,5.00,000.00,028.7,026.6,000.0,037.1,030.4,26.8,-000.7,0010.35,0006.25,0005.90
2023-07-21 22:16:00,SystemResetWarning,0836.5,5.00,000.00,028.8,027.0,000.0,037.1,030.5,26.7,-001.1,0010.38,0006.28,0005.92
2023-07-21 22:17:00,SystemResetWarning,0836.5,5.00,000.00,028.8,027.3,000.0,037.1,030.5,27.0,-001.0,0009.94,0006.33,0005.96
2023-07-21 22:18:00,SystemResetWarning,0836.6,4.99,000.00,028.9,027.6,000.0,037.2,030.6,27.2,-000.9,0010.01,0006.38,0005.99
2023-07-21 22:19:00,SystemResetWarning,0836.6,4.99,000.00,028.9,027.8,000.0,037.2,030.7,27.6,-000.6,0010.01,0006.43,0006.03
2023-07-21 22:20:00,SystemResetWarning,0836.6,4.99,000.00,029.0,027.0,000.0,037.1,030.7,27.9,-000.5,0010.42,0006.46,0006.05
2023-07-21 22:21:00,SystemResetWarning,0836.6,5.01,000.00,028.9,025.4,000.0,037.0,030.4,27.7,-000.6,0010.76,0006.48,0006.08
2023-07-21 22:22:00,SystemResetWarning,0836.5,5.00,000.00,028.8,024.8,000.0,037.0,030.2,26.4,-000.6,0010.75,0006.49,0006.11
2023-07-21 22:23:00,SystemResetWarning,0836.5,5.01,000.00,028.7,025.0,000.0,037.0,030.0,26.8,-000.6,0011.58,0006.52,0006.12
2023-07-21 22:24:00,SystemResetWarning,0836.5,5.00,000.00,028.7,025.4,000.0,037.0,030.1,26.5,-000.5,0012.06,0006.50,0006.12
2023-07-21 22:25:00,SystemResetWarning,0836.4,5.00,000.00,028.7,025.9,000.0,037.1,030.2,27.4,0000.0,0011.88,0006.51,0006.12
2023-07-21 22:26:00,SystemResetWarning,0836.4,5.00,000.00,028.7,026.4,000.0,037.1,030.3,27.3,0000.3,0011.20,0006.49,0006.11
2023-07-21 22:27:00,SystemResetWarning,0836.3,5.00,000.00,028.8,026.8,000.0,037.1,030.4,27.6,0000.2,0011.26,0006.48,0006.09
2023-07-21 22:28:00,SystemResetWarning,0836.4,5.00,000.00,028.8,027.1,000.0,037.1,030.5,27.7,0000.0,0011.24,0006.44,0006.08
2023-07-21 22:29:00,SystemResetWarning,0836.4,5.00,000.00,028.9,027.5,000.0,037.2,030.6,27.5,0000.0,0011.25,0006.42,0006.08
2023-07-21 22:30:00,SystemResetWarning,0836.3,5.00,000.00,028.9,027.7,000.0,037.2,030.7,28.1,0000.0,0011.17,0006.40,0006.08
2023-07-21 22:31:00,SystemResetWarning,0836.4,5.00,000.00,029.0,027.8,000.0,037.2,030.7,27.5,-000.3,0010.77,0006.39,0006.06
2023-07-21 22:32:00,SystemResetWarning,0836.3,4.99,000.00,029.0,026.7,000.0,037.1,030.6,27.8,0000.1,0010.53,0006.35,0006.02
2023-07-21 22:33:00,SystemResetWarning,0836.2,5.00,000.00,028.9,025.3,000.0,037.0,030.3,27.7,0000.1,0011.03,0006.32,0005.98
2023-07-21 22:34:00,SystemResetWarning,0836.2,5.00,000.00,028.8,025.0,000.0,037.0,030.2,29.4,0000.1,0010.33,0006.29,0005.95
2023-07-21 22:35:00,SystemResetWarning,0836.2,5.01,000.00,028.8,025.2,000.0,037.0,030.1,29.5,0000.2,0010.45,0006.29,0005.94
2023-07-21 22:36:00,SystemResetWarning,0836.2,4.99,000.00,028.7,025.7,000.0,037.1,030.2,29.1,-000.3,0010.54,0006.27,0005.92
2023-07-21 22:37:00,SystemResetWarning,0836.2,5.00,000.00,028.7,026.2,000.0,037.1,030.3,28.6,-000.3,0010.51,0006.24,0005.91
2023-07-21 22:38:00,SystemResetWarning,0836.3,5.00,000.00,028.8,026.6,000.0,037.1,030.4,29.6,-000.4,0010.45,0006.23,0005.91
2023-07-21 22:39:00,SystemResetWarning,0836.2,5.01,000.00,028.8,027.0,000.0,037.1,030.5,30.2,-000.1,0010.63,0006.30,0005.92
2023-07-21 22:40:00,SystemResetWarning,0836.2,4.99,000.00,028.9,027.3,000.0,037.2,030.6,30.2,-000.1,0010.66,0006.31,0005.91
2023-07-21 22:41:00,SystemResetWarning,0836.2,5.00,000.00,028.9,027.6,000.0,037.2,030.7,29.2,-000.6,0010.65,0006.31,0005.91
2023-07-21 22:42:00,SystemResetWarning,0836.2,5.00,000.00,029.0,027.8,000.0,037.2,030.7,29.8,-000.5,0010.67,0006.31,0005.91
2023-07-21 22:43:00,SystemResetWarning,0836.2,5.00,000.00,029.0,027.7,000.0,037.2,030.8,28.8,-000.3,0010.56,0006.32,0005.93
2023-07-21 22:44:00,SystemResetWarning,0836.2,5.00,000.00,029.0,026.3,000.0,037.1,030.6,29.2,-000.5,0010.12,0006.35,0005.96
2023-07-21 22:45:00,SystemResetWarning,0836.2,5.00,000.00,028.9,025.1,000.0,037.0,030.4,28.6,-000.1,0010.70,0006.37,0005.99
2023-07-21 22:46:00,SystemResetWarning,0836.2,5.01,000.00,028.9,025.1,000.0,037.0,030.2,28.7,-000.1,0010.95,0006.40,0006.00
2023-07-21 22:47:00,SystemResetWarning,0836.2,5.01,000.00,028.8,025.4,000.0,037.1,030.2,29.9,-000.2,0011.92,0006.48,0006.02
2023-07-21 22:48:00,SystemResetWarning,0836.2,4.99,000.00,028.8,025.8,000.0,037.1,030.2,29.4,-000.1,0012.70,0006.51,0006.03
2023-07-21 22:49:00,SystemResetWarning,0836.2,5.01,000.00,028.8,026.3,000.0,037.1,030.3,29.1,-000.0,0012.76,0006.53,0006.04
2023-07-21 22:50:00,SystemResetWarning,0836.2,5.00,000.00,028.8,026.7,000.0,037.2,030.5,29.3,0000.0,0013.10,0006.50,0006.05
2023-07-21 22:51:00,SystemResetWarning,0836.3,5.00,000.00,028.9,027.1,000.0,037.2,030.6,29.0,-000.1,0013.38,0006.49,0006.06
2023-07-21 22:52:00,SystemResetWarning,0836.2,5.00,000.00,028.9,027.4,000.0,037.2,030.7,29.6,0000.2,0013.45,0006.54,0006.08
2023-07-21 22:53:00,SystemResetWarning,0836.3,5.00,000.00,029.0,027.7,000.0,037.3,030.7,29.4,0000.7,0013.46,0006.56,0006.09
2023-07-21 22:54:00,SystemResetWarning,0836.2,4.99,000.00,029.0,027.2,000.0,037.2,030.7,29.6,0000.7,0013.51,0006.58,0006.10
2023-07-21 22:55:00,SystemResetWarning,0836.2,5.00,000.00,029.0,025.6,000.0,037.1,030.4,29.0,0000.6,0013.60,0006.62,0006.11
2023-07-21 22:56:00,SystemResetWarning,0836.2,5.02,000.00,028.9,024.9,000.0,037.0,030.3,28.7,0000.4,0013.25,0006.65,0006.12
2023-07-21 22:57:00,SystemResetWarning,0836.3,5.00,000.00,028.8,025.0,000.0,037.0,030.0,29.4,0000.1,0012.65,0006.63,0006.13
2023-07-21 22:58:00,SystemResetWarning,0836.2,5.00,000.00,028.7,025.4,000.0,037.1,030.1,29.7,0000.3,0011.24,0006.54,0006.13
2023-07-21 22:59:00,SystemResetWarning,0836.3,5.00,000.00,028.7,025.9,000.0,037.1,030.2,30.1,-000.1,0010.59,0006.52,0006.13
